(175399) = 2005 EP200 = 2006 OM7

Discovered at Mount Lemmon on 2006-07-18 by Mt. Lemmon Survey.

Orbit

Orbit type: Main Belt

Note: WebGL enabled browser required.

epoch2024-03-31.0
epoch JD2460400.5
perihelion date2021-01-18.17531
perihelion JD2459232.67532
argument of perihelion (°)298.44067
ascending node (°)314.00309
inclination (°)1.62509
eccentricity0.1776206
perihelion distance (AU)1.9851975
Tisserand w.r.t. Jupiter3.5
ΔV w.r.t. Earth (km/sec)8.8
semimajor axis (AU)2.4139680
mean anomaly (°)306.89122
mean daily motion (°/day)0.26278880
aphelion distance (AU)2.843
period (years)3.75
P-vector [x]-0.30138735
P-vector [y]-0.86460231
P-vector [z]-0.40203048
Q-vector [x]0.95328356
Q-vector [y]-0.28224540
Q-vector [z]-0.10764751
absolute magnitude17.02
phase slope0.15
uncertainty0
referenceE2024-GJ9
observations used385
oppositions16
arc length (days)8955
first opposition used1999
last opposition used2024
residual rms (arc-secs)0.78
perturbers coarse indicatorM-v
perturbers precise indicator003Ek
first observation date used1999-10-06.0
last observation date used2024-04-12.0
computer nameMPCLINUX
JD of orbit computation2456966.734629
perihelion JD uncertainty (days)6.6216E-05
argument of perihelion uncertainty (°)1.9668E-04
ascending node uncertainty (°)1.9578E-04
inclination uncertainty (°)4.6659E-06
eccentricity uncertainty 3.7884E-08
perihelion distance uncertainty (AU)9.1342E-08
Minimum Orbit Intersection Distances (in AU)
for orbit epoch: 2460400.5, reference: E2024-GJ9
Mercury1.51902
Venus1.25981
Earth0.97128
Mars0.45832
Jupiter2.19651
Saturn6.21522
Uranus15.9669
Neptune27.038

Observations

379 total observations over interval: 1999 10 06.32023 – 2024 03 17.508800
These data are available for download (format description).

Date (UT) J2000 RA J2000 Dec Magn Location Ref
1999 10 06.32023 02 07 21.46 +15 26 38.2 20.6   704 – Lincoln Laboratory ETS, New Mexico MPS 176085
1999 10 06.33345 02 07 20.75 +15 26 34.8 20.6   704 – Lincoln Laboratory ETS, New Mexico MPS 176085
1999 10 06.35992 02 07 19.35 +15 26 28.3 20.8   704 – Lincoln Laboratory ETS, New Mexico MPS 176085
1999 10 14.369080 02 00 02.229 +14 51 58.17 20.82 V 645 – Apache Point-Sloan Digital Sky Survey MPS 176085
1999 10 14.372552 02 00 02.020 +14 51 57.29 21.74   645 – Apache Point-Sloan Digital Sky Survey MPS 176085
1999 11 01.33188 01 42 41.24 +13 18 59.5 21.2 V 691 – Steward Observatory, Kitt Peak-Spacewatch MPS 176085
1999 11 01.36133 01 42 39.56 +13 18 49.9 21.2 V 691 – Steward Observatory, Kitt Peak-Spacewatch MPS 176085
1999 11 01.38843 01 42 38.02 +13 18 41.3 21.2 V 691 – Steward Observatory, Kitt Peak-Spacewatch MPS 176085
2001 02 03.17705 07 47 43.56 +21 41 26.2 21.4 V 691 – Steward Observatory, Kitt Peak-Spacewatch MPS 176085
2001 02 03.19977 07 47 42.16 +21 41 28.4 21.3 V 691 – Steward Observatory, Kitt Peak-Spacewatch MPS 176085
2001 02 03.22277 07 47 40.76 +21 41 31.2 21.6 V 691 – Steward Observatory, Kitt Peak-Spacewatch MPS 176085
2003 10 23.39059 03 42 09.52 +22 09 23.4 20.5 R 695 – Kitt Peak MPS 176085
2003 10 23.47880 03 42 05.16 +22 09 12.1   695 – Kitt Peak MPS 176085
2005 01 19.49216 10 10 29.98 +11 03 40.5 20.9 V 691 – Steward Observatory, Kitt Peak-Spacewatch MPS 176085
2005 01 19.51772 10 10 29.03 +11 03 44.4 21.1 V 691 – Steward Observatory, Kitt Peak-Spacewatch MPS 176085
2005 01 19.54260 10 10 28.08 +11 03 48.0 20.8 V 691 – Steward Observatory, Kitt Peak-Spacewatch MPS 176085
2005 03 08.23197 09 27 18.45 +14 13 29.6 19.5 R G96 – Mt. Lemmon Survey MPS 129323
2005 03 08.23746 09 27 18.16 +14 13 30.5 19.9 R G96 – Mt. Lemmon Survey MPS 129323
2005 03 08.24294 09 27 17.86 +14 13 31.7 19.9 R G96 – Mt. Lemmon Survey MPS 129323
2005 03 08.24839 09 27 17.60 +14 13 32.6 20.1 R G96 – Mt. Lemmon Survey MPS 129323
2005 03 14.24499 09 23 03.97 +14 30 30.6 19.9 R G96 – Mt. Lemmon Survey MPS 129323
2005 03 14.25609 09 23 03.55 +14 30 31.7 20.1 R G96 – Mt. Lemmon Survey MPS 129323
2005 03 14.26719 09 23 03.09 +14 30 34.4 19.7 R G96 – Mt. Lemmon Survey MPS 129323
2005 03 14.27827 09 23 02.66 +14 30 35.1 20.1 R G96 – Mt. Lemmon Survey MPS 129323
2006 05 02.46110 21 36 31.50 -14 55 00.2 20.6 V G96 – Mt. Lemmon Survey MPS 176085
2006 05 02.46333 21 36 31.68 -14 54 59.0 21.1 V G96 – Mt. Lemmon Survey MPS 176085
2006 05 02.46573 21 36 31.89 -14 54 58.1 20.7 V G96 – Mt. Lemmon Survey MPS 176085
2006 05 02.46792 21 36 32.11 -14 54 56.7 21.5 V G96 – Mt. Lemmon Survey MPS 176085
2006 06 20.40786 22 29 09.31 -09 42 50.3 20.6 V G96 – Mt. Lemmon Survey MPS 176085
2006 06 20.41452 22 29 09.49 -09 42 49.1 20.4 V G96 – Mt. Lemmon Survey MPS 176085
2006 06 20.42115 22 29 09.70 -09 42 47.3 20.6 V G96 – Mt. Lemmon Survey MPS 176085
2006 06 20.42788 22 29 09.88 -09 42 46.0 20.5 V G96 – Mt. Lemmon Survey MPS 176085
2006 07 18.41604 22 31 38.96 -09 02 52.9 20.1 V G96 – Mt. Lemmon Survey MPS 175192
2006 07 18.42046 22 31 38.85 -09 02 53.0 19.8 V G96 – Mt. Lemmon Survey MPS 175192
2006 07 18.42490 22 31 38.71 -09 02 53.5 20.2 V G96 – Mt. Lemmon Survey MPS 175192
2006 07 18.42936 22 31 38.67 -09 02 53.8 20.1 V G96 – Mt. Lemmon Survey MPS 175192
2006 07 20.36774 22 30 55.30 -09 05 08.2 20.4 R 644 – Palomar Mountain/NEAT MPS 175192
2006 07 20.38802 22 30 54.82 -09 05 09.6 19.5 R 644 – Palomar Mountain/NEAT MPS 175192
2006 07 20.40825 22 30 54.25 -09 05 11.3 19.8 R 644 – Palomar Mountain/NEAT MPS 175192
2006 08 13.35625 22 13 58.57 -10 17 00.6 19.3 R 644 – Palomar Mountain/NEAT MPS 176085
2006 08 13.37851 22 13 57.29 -10 17 05.9 19.3 R 644 – Palomar Mountain/NEAT MPS 176085
2006 08 13.39963 22 13 56.07 -10 17 11.3 19.3 R 644 – Palomar Mountain/NEAT MPS 176085
2006 08 15.29963 22 12 09.70 -10 25 13.5 19.2 R 644 – Palomar Mountain/NEAT MPS 176085
2006 08 15.32093 22 12 08.43 -10 25 18.9 19.2 R 644 – Palomar Mountain/NEAT MPS 176085
2006 08 15.34673 22 12 06.93 -10 25 25.8 19.3 R 644 – Palomar Mountain/NEAT MPS 176085
2006 08 17.27842 22 10 17.01 -10 33 44.4 19.2 R 644 – Palomar Mountain/NEAT MPS 176085
2006 08 17.29932 22 10 15.78 -10 33 49.9 19.2 R 644 – Palomar Mountain/NEAT MPS 176085
2006 08 17.32011 22 10 14.53 -10 33 55.3 19.2 R 644 – Palomar Mountain/NEAT MPS 176085
2006 08 17.95899 22 09 37.74 -10 36 42.6 19.2 V A50 – Andrushivka Astronomical Observatory MPS 184099
2006 08 19.26333 22 08 22.80 -10 42 22.1 19.2 R 699 – Lowell Observatory-LONEOS MPS 176085
2006 08 19.28156 22 08 21.82 -10 42 27.2   699 – Lowell Observatory-LONEOS MPS 176085
2006 08 19.29981 22 08 20.78 -10 42 31.3   699 – Lowell Observatory-LONEOS MPS 176085
2006 08 19.33739 22 08 18.43 -10 42 42.2   699 – Lowell Observatory-LONEOS MPS 176085
2006 08 21.29703 22 06 25.32 -10 51 15.7 19.8 R 644 – Palomar Mountain/NEAT MPS 176085
2006 08 21.31793 22 06 24.07 -10 51 21.2 20.0 R 644 – Palomar Mountain/NEAT MPS 176085
2006 08 21.33846 22 06 22.81 -10 51 26.4 19.4 R 644 – Palomar Mountain/NEAT MPS 176085
2006 08 23.90498 22 03 55.07 -11 02 37.9 19.2 V A50 – Andrushivka Astronomical Observatory MPS 184099
2006 08 23.91265 22 03 54.58 -11 02 39.4 18.6 V A50 – Andrushivka Astronomical Observatory MPS 184099
2006 09 26.19759 21 41 28.10 -12 40 53.7 20.3 V G96 – Mt. Lemmon Survey MPS 181156
2006 09 26.20464 21 41 27.96 -12 40 54.2 20.3 V G96 – Mt. Lemmon Survey MPS 181156
2006 09 26.21155 21 41 27.85 -12 40 54.8 20.6 V G96 – Mt. Lemmon Survey MPS 181156
2006 09 26.21854 21 41 27.70 -12 40 55.3 20.6 V G96 – Mt. Lemmon Survey MPS 181156
2006 10 21.12115 21 44 11.36 -12 22 41.3 21.1 V G96 – Mt. Lemmon Survey MPS 184099
2006 10 21.12568 21 44 11.47 -12 22 40.0 22.2 V G96 – Mt. Lemmon Survey MPS 184099
2006 10 21.13017 21 44 11.58 -12 22 39.3 21.3 V G96 – Mt. Lemmon Survey MPS 184099
2006 10 21.13466 21 44 11.68 -12 22 39.2 21.5 V G96 – Mt. Lemmon Survey MPS 184099
2007 12 15.38417 04 38 38.58 +24 16 06.5 19.9 V G96 – Mt. Lemmon Survey MPS 231351
2007 12 15.39032 04 38 38.11 +24 16 05.3 20.2 V G96 – Mt. Lemmon Survey MPS 231351
2007 12 15.40306 04 38 37.32 +24 16 03.3 20.3 V G96 – Mt. Lemmon Survey MPS 231351
2007 12 15.40921 04 38 36.92 +24 16 02.4 20.0 V G96 – Mt. Lemmon Survey MPS 231351
2007 12 31.13883 04 24 18.18 +23 36 55.1 21.3 V G96 – Mt. Lemmon Survey MPS 232630
2007 12 31.14447 04 24 17.89 +23 36 54.2 20.9 V G96 – Mt. Lemmon Survey MPS 232630
2007 12 31.15005 04 24 17.64 +23 36 53.6 21.0 V G96 – Mt. Lemmon Survey MPS 232630
2007 12 31.15566 04 24 17.38 +23 36 52.3 20.9 V G96 – Mt. Lemmon Survey MPS 232630
2008 12 30.48545 12 00 23.50 -00 49 31.0 21.7 V G96 – Mt. Lemmon Survey MPS 271632
2008 12 30.49159 12 00 23.79 -00 49 32.8 20.7 V G96 – Mt. Lemmon Survey MPS 271632
2008 12 30.49780 12 00 24.12 -00 49 35.5 20.9 V G96 – Mt. Lemmon Survey MPS 271632
2008 12 30.50395 12 00 24.44 -00 49 37.4 21.3 V G96 – Mt. Lemmon Survey MPS 271632
2009 02 20.34617 12 12 34.12 -03 05 39.8 20.1 V 691 – Steward Observatory, Kitt Peak-Spacewatch MPS 278477
2009 02 20.36451 12 12 33.57 -03 05 37.5 20.0 V 691 – Steward Observatory, Kitt Peak-Spacewatch MPS 278477
2009 02 20.38262 12 12 33.00 -03 05 35.9 20.3 V 691 – Steward Observatory, Kitt Peak-Spacewatch MPS 278477
2009 02 24.30373 12 10 28.48 -02 57 05.6   691 – Steward Observatory, Kitt Peak-Spacewatch MPS 278477
2009 02 24.32206 12 10 27.86 -02 57 02.7   691 – Steward Observatory, Kitt Peak-Spacewatch MPS 278477
2009 02 24.34039 12 10 27.18 -02 56 59.8   691 – Steward Observatory, Kitt Peak-Spacewatch MPS 278477
2009 02 28.34031 12 07 54.71 -02 45 29.4   691 – Steward Observatory, Kitt Peak-Spacewatch MPS 279521
2009 02 28.35792 12 07 53.93 -02 45 25.9   691 – Steward Observatory, Kitt Peak-Spacewatch MPS 279521
2009 02 28.37554 12 07 53.18 -02 45 22.5   691 – Steward Observatory, Kitt Peak-Spacewatch MPS 279521
2009 03 17.96201 11 53 01.43 -01 27 48.8 18.9 V J75 – OAM Observatory, La Sagra MPS 282383
2009 03 17.97512 11 53 00.68 -01 27 45.0 18.8 V J75 – OAM Observatory, La Sagra MPS 282383
2009 03 17.98824 11 52 59.86 -01 27 41.3 19.0 V J75 – OAM Observatory, La Sagra MPS 282383
